N8QF Weather Reports


time (UTC)temp
C
wind
direction
speed
KPH
gust
KPH
rain 1hr
cm
rain 24hr
cm
rain mn
cm
humidity
%
barometer
mb
20260503190220 15 233 20.9 35.4 0.00 0.00 0.00 38 1015.4
20260503185719 15 212 17.7 30.6 0.00 0.00 0.00 37 1015.5
20260503185219 15 229 20.9 35.4 0.00 0.00 0.00 38 1015.6
20260503184217 15 219 19.3 29.0 0.00 0.00 0.00 35 1015.7
20260503183716 16 221 17.7 33.8 0.00 0.00 0.00 39 1015.7
20260503183216 15 224 16.1 30.6 0.00 0.00 0.00 39 1015.8
20260503182716 16 222 17.7 38.6 0.00 0.00 0.00 36 1015.9
20260503182216 16 218 12.9 25.7 0.00 0.00 0.00 36 1015.9
20260503181214 15 193 17.7 32.2 0.00 0.00 0.00 37 1016.1
20260503180714 15 233 17.7 35.4 0.00 0.00 0.00 35 1016.2
20260503180214 15 197 12.9 22.5 0.00 0.00 0.00 38 1016.2
20260503175711 15 217 19.3 37.0 0.00 0.00 0.00 36 1016.3
20260503175210 15 207 16.1 24.1 0.00 0.00 0.00 37 1016.3
20260503174708 15 203 19.3 30.6 0.00 0.00 0.00 42 1016.4
20260503174208 15 224 19.3 37.0 0.00 0.00 0.00 42 1016.5
20260503173708 15 225 16.1 29.0 0.00 0.00 0.00 39 1016.5
20260503173208 15 184 14.5 24.1 0.00 0.00 0.00 39 1016.6
20260503172707 15 187 16.1 33.8 0.00 0.00 0.00 38 1016.9
20260503172207 14 232 19.3 35.4 0.00 0.00 0.00 38 1016.9
20260503171707 15 200 17.7 29.0 0.00 0.00 0.00 39 1017.0
20260503171207 15 177 14.5 25.7 0.00 0.00 0.00 42 1017.0
20260503170706 15 225 14.5 27.4 0.00 0.00 0.00 45 1017.2
20260503170206 15 208 12.9 22.5 0.00 0.00 0.00 41 1017.3
20260503160158 13 231 12.9 22.5 0.00 0.00 0.00 48 1018.1
20260503150652 11 217 16.1 27.4 0.00 0.00 0.00 50 1018.6
20260503150152 11 233 14.5 22.5 0.00 0.00 0.00 49 1018.5
20260503140149 10 193 9.7 16.1 0.00 0.00 0.00 56 1018.4
20260503131146 7 222 8.0 14.5 0.00 0.00 0.00 67 1018.6
20260503130645 7 212 9.7 16.1 0.00 0.00 0.00 67 1018.7
20260503130144 7 187 9.7 16.1 0.00 0.00 0.00 69 1018.6
20260503120141 3 195 1.6 3.2 0.00 0.00 0.00 90 1018.5
20260503110635 1 0 0.0 0.0 0.00 0.00 0.00 95 1018.0
20260503110134 1 0 0.0 0.0 0.00 0.00 0.00 95 1018.0
20260503100127 1 0 0.0 0.0 0.00 0.00 0.00 95 1017.5
20260503090119 1 0 0.0 0.0 0.00 0.00 0.00 95 1017.5
20260503081613 1 0 0.0 0.0 0.00 0.00 0.00 94 1017.4
20260503081113 1 0 0.0 0.0 0.00 0.00 0.00 94 1017.3
20260503080613 1 0 0.0 0.0 0.00 0.00 0.00 94 1017.3
20260503080113 1 0 0.0 0.0 0.00 0.00 0.00 94 1017.3
20260503072611 1 0 0.0 0.0 0.00 0.00 0.00 93 1017.4
20260503072110 1 0 0.0 0.0 0.00 0.00 0.00 93 1017.3
20260503071610 1 0 0.0 0.0 0.00 0.00 0.00 93 1017.4
20260503071110 1 0 0.0 0.0 0.00 0.00 0.00 93 1017.4
20260503070610 1 0 0.0 0.0 0.00 0.00 0.00 93 1017.4
20260503070109 2 0 0.0 0.0 0.00 0.00 0.00 93 1017.5
20260503055054 2 0 0.0 0.0 0.00 0.00 0.00 92 1017.7
20260503054554 2 0 0.0 0.0 0.00 0.00 0.00 92 1017.8
20260503054054 2 0 0.0 0.0 0.00 0.00 0.00 92 1017.7
20260503053553 2 0 0.0 0.0 0.00 0.00 0.00 92 1017.7
20260503053053 2 0 0.0 0.0 0.00 0.00 0.00 92 1017.8
20260503052553 2 0 0.0 0.0 0.00 0.00 0.00 92 1017.7
20260503052051 2 0 0.0 0.0 0.00 0.00 0.00 91 1017.7
20260503051550 2 0 0.0 0.0 0.00 0.00 0.00 91 1017.7
20260503051050 2 0 0.0 0.0 0.00 0.00 0.00 92 1017.7
20260503050550 2 7 1.6 3.2 0.00 0.00 0.00 92 1017.7
20260503050050 2 11 3.2 3.2 0.00 0.00 0.00 91 1017.7
20260503045549 2 11 3.2 4.8 0.00 0.00 0.00 91 1017.7
20260503045049 2 8 3.2 3.2 0.00 0.00 0.00 91 1017.7
20260503044549 2 14 3.2 4.8 0.00 0.00 0.00 91 1017.7
20260503044049 2 13 3.2 4.8 0.00 0.00 0.00 91 1017.7
20260503043549 2 8 3.2 4.8 0.00 0.00 0.00 91 1017.7
20260503043048 2 7 3.2 4.8 0.00 0.00 0.00 90 1017.7
20260503042548 2 14 1.6 3.2 0.00 0.00 0.00 90 1017.6
20260503042048 2 0 0.0 0.0 0.00 0.00 0.00 90 1017.7
20260503041548 3 13 1.6 3.2 0.00 0.00 0.00 89 1017.7
20260503041047 3 8 1.6 3.2 0.00 0.00 0.00 89 1017.7
20260503040547 3 8 1.6 3.2 0.00 0.00 0.00 89 1017.7
20260503040047 3 15 3.2 3.2 0.00 0.00 0.00 89 1017.6
20260503035547 3 10 4.8 4.8 0.00 0.00 0.00 88 1017.6
20260503035046 3 8 3.2 4.8 0.00 0.00 0.00 88 1017.6
20260503034546 3 0 0.0 0.0 0.00 0.00 0.00 88 1017.6
20260503034046 3 0 0.0 0.0 0.00 0.00 0.00 87 1017.6
20260503033546 3 0 0.0 0.0 0.00 0.00 0.00 87 1017.6
20260503033045 3 0 0.0 0.0 0.00 0.00 0.00 87 1017.7
20260503032545 3 15 1.6 1.6 0.00 0.00 0.00 86 1017.7
20260503032045 3 18 1.6 3.2 0.00 0.00 0.00 86 1017.6
20260503031545 3 18 0.0 3.2 0.00 0.00 0.00 86 1017.7
20260503031045 3 0 0.0 0.0 0.00 0.00 0.00 85 1017.7
20260503030544 3 0 0.0 0.0 0.00 0.00 0.00 85 1017.7
20260503030044 3 0 0.0 0.0 0.00 0.00 0.00 85 1017.7
20260503025544 3 11 1.6 3.2 0.00 0.00 0.00 85 1017.7
20260503025044 3 10 4.8 4.8 0.00 0.00 0.00 85 1017.7
20260503024543 3 11 3.2 4.8 0.00 0.00 0.00 84 1017.7
20260503024043 4 14 3.2 4.8 0.00 0.00 0.00 84 1017.7
20260503023540 4 14 3.2 4.8 0.00 0.00 0.00 83 1017.7
20260503023040 4 11 3.2 4.8 0.00 0.00 0.00 83 1017.7
20260503022540 4 13 4.8 4.8 0.00 0.00 0.00 83 1017.7
20260503022040 4 13 4.8 4.8 0.00 0.00 0.00 83 1017.6
20260503021539 4 13 4.8 4.8 0.00 0.00 0.00 82 1017.6
20260503021039 4 11 4.8 4.8 0.00 0.00 0.00 82 1017.6
20260503020539 5 11 3.2 3.2 0.00 0.00 0.00 81 1017.6
20260503020036 5 14 3.2 3.2 0.00 0.00 0.00 80 1017.6
20260503015535 5 14 3.2 3.2 0.00 0.00 0.00 80 1017.5
20260503015033 5 14 3.2 3.2 0.00 0.00 0.00 80 1017.5
20260503014532 5 17 3.2 3.2 0.00 0.00 0.00 79 1017.5
20260503014032 5 20 3.2 3.2 0.00 0.00 0.00 78 1017.4
20260503013532 5 13 3.2 4.8 0.00 0.00 0.00 76 1017.4
20260503013032 5 21 3.2 3.2 0.00 0.00 0.00 75 1017.4
20260503012531 6 25 1.6 3.2 0.00 0.00 0.00 73 1017.3
20260503012031 6 24 1.6 3.2 0.00 0.00 0.00 70 1017.2
20260503011529 6 58 1.6 3.2 0.00 0.00 0.00 68 1017.2
20260503011029 6 45 1.6 3.2 0.00 0.00 0.00 66 1017.1
20260503010529 6 338 0.0 1.6 0.00 0.00 0.00 63 1017.1
20260503010029 7 1 0.0 1.6 0.00 0.00 0.00 61 1017.0
20260503005528 7 335 3.2 8.0 0.00 0.00 0.00 57 1017.0
20260503005028 7 346 4.8 8.0 0.00 0.00 0.00 56 1017.0
20260503004528 7 305 4.8 11.3 0.00 0.00 0.00 56 1017.0
20260503004026 8 23 3.2 12.9 0.00 0.00 0.00 55 1017.0
20260503003525 8 329 4.8 11.3 0.00 0.00 0.00 54 1017.0
20260503003025 8 326 4.8 11.3 0.00 0.00 0.00 54 1017.0
20260503002525 8 321 6.4 11.3 0.00 0.00 0.00 54 1016.9
20260503002025 8 338 4.8 12.9 0.00 0.00 0.00 54 1016.9
20260503001525 8 308 6.4 14.5 0.00 0.00 0.00 53 1016.8
20260503001024 8 312 6.4 14.5 0.00 0.00 0.00 53 1016.8
20260503000524 8 323 6.4 12.9 0.00 0.00 0.00 53 1016.6
20260503000022 8 342 8.0 17.7 0.00 0.00 0.00 51 1016.6
20260502235523 8 315 8.0 16.1 0.00 0.00 0.00 51 1016.6
20260502235022 8 31 6.4 12.9 0.00 0.00 0.00 51 1016.5
20260502234522 8 314 8.0 16.1 0.00 0.00 0.00 51 1016.5
20260502234021 9 319 6.4 16.1 0.00 0.00 0.00 51 1016.4
20260502233521 9 342 6.4 14.5 0.00 0.00 0.00 50 1016.4
20260502233021 9 325 6.4 12.9 0.00 0.00 0.00 50 1016.4
20260502232521 9 343 9.7 19.3 0.00 0.00 0.00 48 1016.5
20260502232021 9 290 9.7 19.3 0.00 0.00 0.00 49 1016.4
20260502231520 9 330 6.4 14.5 0.00 0.00 0.00 49 1016.4
20260502231020 10 325 6.4 14.5 0.00 0.00 0.00 49 1016.4
20260502230020 10 339 8.0 16.1 0.00 0.00 0.00 50 1016.3
20260502225519 9 322 8.0 14.5 0.00 0.00 0.00 46 1016.3
20260502225019 10 335 6.4 14.5 0.00 0.00 0.00 46 1016.3
20260502224518 10 325 6.4 17.7 0.00 0.00 0.00 48 1016.2
20260502224018 10 295 4.8 12.9 0.00 0.00 0.00 48 1016.2
20260502223518 10 333 6.4 16.1 0.00 0.00 0.00 48 1016.2
20260502223018 10 328 9.7 17.7 0.00 0.00 0.00 46 1016.1
20260502222516 10 345 8.0 19.3 0.00 0.00 0.00 46 1016.1
20260502222015 10 323 8.0 17.7 0.00 0.00 0.00 47 1016.2
20260502221515 10 17 9.7 17.7 0.00 0.00 0.00 49 1016.1
20260502221015 10 329 9.7 19.3 0.00 0.00 0.00 47 1016.1
20260502220515 10 359 9.7 16.1 0.00 0.00 0.00 44 1016.0
20260502220014 10 332 6.4 19.3 0.00 0.00 0.00 47 1016.0
20260502215514 10 31 8.0 14.5 0.00 0.00 0.00 47 1016.0
20260502215014 11 25 6.4 11.3 0.00 0.00 0.00 46 1016.0
20260502214514 11 273 6.4 14.5 0.00 0.00 0.00 46 1016.0
20260502214014 10 312 6.4 16.1 0.00 0.00 0.00 45 1016.0
20260502213513 10 291 8.0 16.1 0.00 0.00 0.00 46 1015.9
20260502213011 11 287 6.4 11.3 0.00 0.00 0.00 45 1015.9
20260502212513 10 308 9.7 17.7 0.00 0.00 0.00 42 1015.9
20260502212011 11 328 9.7 20.9 0.00 0.00 0.00 47 1015.8
20260502211511 11 326 6.4 14.5 0.00 0.00 0.00 45 1015.8
20260502211009 11 318 6.4 14.5 0.00 0.00 0.00 48 1015.8
20260502210509 10 18 11.3 22.5 0.00 0.00 0.00 46 1015.8
20260502210009 10 3 9.7 19.3 0.00 0.00 0.00 45 1015.8
20260502205508 11 311 8.0 17.7 0.00 0.00 0.00 47 1015.8
20260502205008 11 326 8.0 17.7 0.00 0.00 0.00 44 1015.8
20260502204508 11 346 3.2 8.0 0.00 0.00 0.00 42 1015.8
20260502204008 11 285 6.4 12.9 0.00 0.00 0.00 45 1015.8
20260502203507 11 273 9.7 19.3 0.00 0.00 0.00 43 1015.9
20260502203007 11 290 8.0 22.5 0.00 0.00 0.00 44 1015.9
20260502202007 11 329 8.0 25.7 0.00 0.00 0.00 44 1016.0
20260502201506 11 329 8.0 16.1 0.00 0.00 0.00 42 1016.0
20260502201006 11 325 6.4 22.5 0.00 0.00 0.00 45 1016.0
20260502200506 11 298 6.4 14.5 0.00 0.00 0.00 45 1016.1
20260502200006 11 319 6.4 22.5 0.00 0.00 0.00 43 1016.2
20260502195505 11 293 8.0 17.7 0.00 0.00 0.00 45 1016.2
20260502195005 10 307 9.7 16.1 0.00 0.00 0.00 45 1016.1
20260502194505 11 325 9.7 19.3 0.00 0.00 0.00 44 1016.2
20260502194005 11 263 8.0 22.5 0.00 0.00 0.00 43 1016.2
20260502193505 12 335 11.3 22.5 0.00 0.00 0.00 42 1016.1
20260502193004 11 340 8.0 17.7 0.00 0.00 0.00 47 1016.2
20260502192504 11 281 9.7 17.7 0.00 0.00 0.00 41 1016.3
20260502192006 11 298 9.7 20.9 0.00 0.00 0.00 41 1016.4
20260502191504 11 319 8.0 12.9 0.00 0.00 0.00 43 1016.3
20260502191003 11 336 9.7 17.7 0.00 0.00 0.00 45 1016.4
20260502190503 11 336 9.7 19.3 0.00 0.00 0.00 43 1016.5